Regional Weather Roundup
Issued by NWS

Home | Current Version | Previous Version | Graphics & Text | Print | Product List | Glossary Off
Versions: 1 2 3 4 5 6 7 8 9 10 11 12 13 14 15 16 17 18 19 20 21 22 23 24 25 26 27 28 29 30 31 32 33 34 35 36 37 38 39 40 41 42 43 44 45 46 47 48 49 50

000
ASUS43 KMKX 251100
RWRWI

WISCONSIN REGIONAL WEATHER ROUNDUP
NATIONAL WEATHER SERVICE MILWAUKEE/SULLIVAN WI
600 AM CDT WED MAY 25 2016

NOTE: "FAIR" INDICATES FEW OR NO CLOUDS BELOW 12,000 FEET WITH NO
SIGNIFICANT WEATHER AND/OR OBSTRUCTIONS TO VISIBILITY.

WIZ001-002-006>008-014>016-023>028-251200-
NORTHWEST WISCONSIN

CITY           SKY/WX    TMP DP  RH WIND       PRES   REMARKS
SUPERIOR ARPT  FOG       45  45 100 E7        30.02F VSB 1/2
ASHLAND        FOG       50  50 100 NE8       30.02F VSB<1/4
HAYWARD        PTCLDY    51  50  96 N6        29.96F
SIREN          FOG       57  56  97 NE5       29.95F VSB 3/4
CUMBERLAND     CLOUDY    55  55 100 CALM      29.95F
RICE LAKE      CLOUDY    59  56  87 CALM      29.96F
CHETEK         CLOUDY    60  58  96 E6        29.95S
LADYSMITH      CLOUDY    59  58  96 E6        29.97F
EAU CLAIRE     NOT AVBL
MENOMONIE      MOCLDY    57  55  93 CALM      29.93S
NEW RICHMOND   MOCLDY    60  55  81 E6        29.92R
OSCEOLA        CLOUDY    62  58  88 E8        29.94S
$$

WIZ003>005-009-010-017-018-251200-
NORTH CENTRAL WISCONSIN

CITY           SKY/WX    TMP DP  RH WIND       PRES   REMARKS
MANITOWISH WTR NOT AVBL
ARBOR VITAE    FOG       57  56  96 CALM      30.01F VSB<1/4
WOODRUFF       FOG       57  56  96 CALM      30.01F VSB<1/4
RHINELANDER    FOG       55  55 100 E10       30.02F VSB 1/4
EAGLE RIVER    FOG       58  58 100 CALM      30.03S VSB 1/2
LAND O LAKES   FOG       57  57 100 CALM      30.05R VSB 3/4
PHILLIPS       FOG       52  52 100 NE7       29.98F VSB 1/4
TOMAHAWK       FOG       51  50  97 E6        30.01F VSB<1/4
MEDFORD        PTCLDY    55  55 100 E7        29.98F
MERRILL        FOG       49  49 100 NE3       30.01S VSB 1/4
$$

WIZ029-030-035-036-043>047-251200-
CENTRAL WISCONSIN

CITY           SKY/WX    TMP DP  RH WIND       PRES   REMARKS
WAUSAU         CLOUDY    59  55  87 E3        29.97F
MOSINEE        CLEAR     66  57  72 E7        29.97F
MARSHFIELD     CLOUDY    60  56  86 NE6       29.96S
STEVENS POINT  CLOUDY    54  53  97 NE5       29.98F
WAUPACA        CLEAR     58  57  97 NE5       29.97F
WAUTOMA        CLEAR     53  52  96 CALM      29.97
WISC RAPIDS    CLOUDY    58  54  86 E3        29.97S
CAMP DOUGLAS   CLEAR     50  50 100 SE2       29.94S
$$

WIZ011>013-019>022-031-037>040-048>050-251200-
NORTHEAST WISCONSIN

CITY           SKY/WX    TMP DP  RH WIND       PRES   REMARKS
ANTIGO         FOG       54  54 100 E6        30.02S VSB 1/4
SHAWANO        FOG       60  58  92 E10       30.01S VSB 3/4
OCONTO         CLOUDY   N/A N/A N/A E5        30.02R
STURGEON BAY   NOT AVBL
GREEN BAY      CLOUDY    58  56  93 NE16      29.99F FOG
MANITOWOC      NOT AVBL
APPLETON         N/A     59  57  94 NE10      29.96F FOG
CLINTONVILLE   MOCLDY    57  55  94 E8        29.99F FOG
OSHKOSH        CLOUDY    61  59  93 NE7       29.96F FOG
$$

WIZ032>034-041-042-053>061-251200-
SOUTHWEST WISCONSIN

CITY           SKY/WX    TMP DP  RH WIND       PRES   REMARKS
LA CROSSE      CLOUDY    60  57  89 E7        29.92R
SPARTA         CLOUDY    48  47  97 CALM      29.94R
VIROQUA        CLOUDY    62  57  86 E8        29.94R
BOSCOBEL       CLOUDY    59  57  93 CALM      29.94R FOG
PRAIRIE DU CHI CLOUDY    61  59  92 SE3       29.93R
PLATTEVILLE    CLEAR     64  61  92 SE5       29.95R
$$

WIZ056-057-062-063-064-067-068-251200-
SOUTH CENTRAL WISCONSIN

CITY           SKY/WX    TMP DP  RH WIND       PRES   REMARKS
REEDSBURG      CLEAR     55  55 100 CALM      29.94R
BARABOO/DELLS  CLEAR     56  54  92 CALM      29.95R
LONE ROCK      NOT AVBL
MINERAL POINT  PTCLDY    64  61  88 CALM      29.95R
MADISON        MOCLDY    60  58  92 CALM      29.95R
MIDDLETON      MOCLDY    58  58 100 CALM      29.95R
WATERTOWN      CLOUDY    61  61 100 E3        29.94F
MONROE         PTCLDY    63  59  88 S5        29.95R
JANESVILLE     CLEAR     63  61  94 SE5       29.94R
$$

WIZ051-052-058>065-066-070>072-251200-
SOUTHEAST WISCONSIN

CITY           SKY/WX    TMP DP  RH WIND       PRES   REMARKS
MILWAUKEE      MOCLDY    63  58  83 NE3       29.95F
WAUKESHA       PTCLDY    57  57 100 NE3       29.96F
MILWAUKEE/TIMM CLEAR     61  55  82 CALM      29.97F FOG
RACINE         CLEAR     64  59  83 CALM      29.97S
BURLINGTON     CLEAR     59  57  93 CALM      29.95S
KENOSHA        CLEAR     66  60  81 S6        29.96S
FOND DU LAC    CLOUDY    56  55  97 S5        29.96F
SHEBOYGAN      CLOUDY    57  53  86 NE16      29.96F FOG
WEST BEND      PTCLDY    55  55 100 CALM      29.96F FOG
JUNEAU         MOCLDY    61  58  92 NE5       29.96F
$$

LSZ147-162-251200-
LAKE SUPERIOR

STATION/POSITION TIME  TEMP    WIND        PRES    WAVE
                       AIR SEA DIR/SP/G            HT/PER
                 (UTC) (F)     (DEG/KT/KT) (MB)    (FT/S)
W MID LAKE BUOY  0950   40 38   40/  8/  8 1018.5R   1/ 4
DEVILS ISLAND    1000   44      50/ 14/ 15 1017.8F
SAXON HARBOR     1040   47      CALM  /  2 1016.6S
$$

LMZ867-665-643>646-251200-
LAKE MICHIGAN

STATION/POSITION TIME  TEMP    WIND        PRES    WAVE
                       AIR SEA DIR/SP/G            HT/PER
                 (UTC) (F)     (DEG/KT/KT) (MB)    (FT/S)
CHAMBERS ISLAND  1040   53     360/ 15/ 19 1017.3R
N MID LAKE BUOY  0950   48 44   20/  4/  6 1016.6R   1/ 4
NORTHPORT PIER   1000   51     340/ 10/ 12 1016.9R
SISTER BAY       1034   51      20/ 10/ 16   N/A
ALGOMA LAKESHORE 0947           40/  9/ 14   N/A
KEWAUNEE LAKESHO 1006   51      20/ 10/ 14 1015.4S
SHEBOYGAN LAKESH 1000   61     180/  2/  4 1015.5R
PORT WASHINGTON  1040   56      30/  4/  4 1014.9F
S MID LAKE BUOY  0950   54 49  170/ 10/ 12 1014.8F   1
KENOSHA   LAKESH 1000   65     190/  7/  8 1014.6F
$$

TC  - TEMPERATURE IN CELSIUS
VSB - VISIBILITY IN STATUTE MILES
WCI - WIND CHILL INDEX
HX  - HEAT INDEX





USA.gov is the U.S. government's official web portal to all federal, state and local government web resources and services.